Temp
98 99 99 99 97 96 93 92 91 90 91 92 93 94 95 98 100 102 97 96 98 98 96 99 98 98 96 92 92 91 86 94 93 91 94 91 92 92 93 93 91 87 87
97 97 97 97 97 95 93 91 91 90 90 93 93 96 96 100 100 100 97 97 97 97 97 94 95 92 94 89 91 88 90 94 93 88 89 87 88 91 91 90 89 85 88
96 96 95 96 97 96 94 92 91 91 90 92 94 93 93 93 95 96 97 94 98 98 97 95 94 93 94 95 91 90 88 88 92 90 86 82 81 86 89 87 89 85 88
98 97 96 95 97 97 97 94 92 91 91 91 93 90 92 91 97 97 98 98 98 97 98 96 94 93 94 91 92 91 87 87 88 91 92 87 83 79 80 88 84 85 83
99 99 98 96 99 99 99 97 93 91 92 90 90 92 87 95 96 97 94 94 95 97 99 97 95 93 96 91 90 88 86 91 88 89 88 87 89 86 83 79 85 87 87
100 100 100 99 98 101 100 99 93 90 90 90 89 88 90 90 93 94 94 96 100 99 96 96 95 95 92 91 91 88 86 85 86 86 87 87 85 83 82 81 82 83 86
101 99 98 98 97 99 99 99 94 89 90 90 90 88 88 88 89 90 93 94 98 99 92 94 94 95 93 92 89 87 86 86 84 82 85 88 86 85 84 82 81 80 86
103 101 100 99 99 99 99 99 96 91 90 90 89 89 88 91 92 92 95 97 98 99 94 96 96 95 94 93 90 87 87 84 84 81 80 85 86 86 84 81 79 77 81
102 102 103 101 100 100 99 99 97 93 91 91 90 89 88 88 93 93 92 96 94 98 95 95 95 95 94 93 89 87 85 84 84 82 82 84 86 85 85 84 83 78 73
104 104 103 102 103 103 102 101 100 95 93 93 91 90 89 89 90 92 92 94 96 95 93 94 94 94 94 92 89 88 83 80 86 86 80 79 83 85 85 83 83 82 77
105 106 106 105 105 106 105 103 101 98 94 94 94 92 91 91 90 90 91 91 93 93 91 92 92 92 92 92 89 86 83 81 81 82 80 78 78 80 82 83 81 79 77
104 106 108 108 106 106 105 104 101 99 96 95 93 92 92 91 90 89 91 92 91 92 92 91 91 91 91 92 88 85 85 80 82 80 79 78 81 77 77 82 76 76 77
97 102 107 106 105 104 104 102 102 101 99 95 94 92 90 89 89 89 89 91 91 91 92 91 90 90 90 90 88 86 83 80 81 81 79 78 78 75 77 76 76 77 78
90 95 97 102 102 101 102 101 102 103 100 97 94 92 91 90 90 89 89 89 90 90 90 91 91 90 90 90 89 85 82 81 80 80 80 79 78 76 76 76 76 75 76
81 87 90 88 91 97 98 99 100 100 100 96 94 92 92 92 92 91 90 91 90 90 90 91 91 90 91 94 87 85 83 79 79 78 80 78 71 66 67 78 73 72 74
76 78 78 84 86 87 92 94 94 94 97 95 93 93 92 92 91 91 91 90 90 90 90 89 90 90 94 73 74 82 83 80 77 74 75 73 70 67 65 66 64 67 68
75 75 76 75 78 85 87 88 92 94 93 92 93 92 91 90 90 91 91 90 90 90 89 89 90 90 92 68 69 73 85 80 76 74 76 79 79 73 73 65 64 65 65
72 73 75 75 78 85 84 83 87 90 92 91 90 90 89 89 89 90 89 89 90 89 89 88 89 90 91 65 66 70 83 80 76 75 78 79 74 76 75 76 75 73 71
72 72 74 76 76 80 82 81 84 87 89 91 90 90 90 89 89 88 88 89 89 89 89 89 89 88 85 61 64 72 81 78 75 76 77 79 76 65 65 76 74 73 70
71 72 74 78 79 79 80 81 82 85 88 90 91 91 91 89 88 88 88 88 89 89 92 90 90 83 83 59 61 72 85 77 77 75 74 69 75 62 62 74 74 73 72
72 76 76 74 74 78 79 79 78 77 80 86 89 92 90 88 88 87 89 88 88 88 87 88 88 89 85 70 58 61 86 81 79 78 74 79 59 58 58 58 74 69 72
73 75 76 74 76 74 76 78 73 74 77 82 86 88 88 90 92 87 86 88 87 86 87 85 88 90 85 66 57 59 60 72 79 76 76 74 56 55 56 60 59 61 63
72 73 73 73 72 73 73 72 72 74 74 79 83 85 83 86 86 83 80 80 83 84 86 89 85 86 84 77 59 56 59 63 76 78 71 58 53 53 56 57 57 55 74
74 72 71 71 69 70 71 69 70 74 77 75 81 82 83 81 85 88 79 77 75 76 76 80 74 82 81 78 76 66 67 62 71 63 64 64 66 65 70 66 65 76 81
75 75 72 70 70 70 69 70 71 73 78 79 80 80 82 81 80 79 76 74 77 71 73 71 71 69 75 77 69 66 71 68 70 71 69 67 70 73 75 76 77 79 79
74 73 73 72 73 71 72 69 69 69 72 77 85 82 84 85 83 81 73 56 54 51 50 52 60 67 60 54 54 54 53 54 55 70 68 70 69 76 78 78 78 80 76
MSLP
1006.65 1007.60 1008.26 1009.01 1009.93 1010.75 1011.65 1012.37 1012.83 1013.38 1013.81 1013.95 1013.67 1013.35 1012.97 1012.96 1012.81 1012.75 1013.30 1013.74 1013.48 1013.32 1013.35 1012.69 1012.56 1012.31 1012.25 1012.78 1012.94 1012.67 1012.13 1011.16 1011.34 1011.10 1010.43 1011.02 1011.36 1011.50 1011.62 1012.01 1012.36 1013.14 1013.23
1006.00 1007.06 1007.95 1008.69 1009.43 1010.36 1011.20 1011.98 1012.56 1013.16 1013.74 1013.68 1013.55 1013.15 1013.07 1012.71 1012.74 1012.64 1013.27 1013.39 1013.44 1013.35 1013.06 1013.45 1013.04 1013.17 1012.66 1012.72 1012.94 1012.94 1012.30 1011.33 1011.34 1011.55 1010.98 1010.27 1010.67 1010.87 1011.58 1012.03 1012.32 1012.92 1012.86
1005.21 1006.50 1007.50 1008.27 1008.99 1009.72 1010.74 1011.45 1012.18 1012.78 1013.33 1013.36 1013.57 1013.77 1013.93 1013.78 1013.42 1013.11 1012.84 1013.27 1013.10 1013.16 1013.16 1013.26 1013.33 1013.33 1012.68 1012.67 1013.00 1012.87 1012.70 1012.09 1011.33 1011.64 1011.87 1011.38 1011.16 1011.17 1011.22 1011.73 1012.07 1012.60 1012.40
1004.56 1005.76 1006.90 1007.77 1008.34 1009.10 1010.06 1010.89 1011.71 1012.24 1012.84 1013.26 1013.04 1013.28 1013.10 1012.97 1012.58 1012.66 1012.57 1012.95 1012.89 1012.99 1012.88 1013.15 1013.20 1013.35 1013.10 1013.30 1013.07 1013.11 1013.13 1012.74 1011.83 1011.76 1011.81 1012.47 1012.72 1012.27 1011.30 1010.91 1011.83 1012.31 1012.61
1003.72 1004.65 1005.90 1007.05 1007.78 1008.44 1009.16 1010.12 1011.18 1011.87 1012.21 1012.82 1013.04 1013.06 1013.39 1012.71 1012.80 1012.65 1012.89 1013.03 1012.96 1012.84 1012.61 1012.91 1013.13 1013.31 1012.97 1013.28 1013.35 1013.51 1013.40 1012.72 1012.84 1012.45 1012.41 1012.22 1011.86 1011.98 1011.85 1011.35 1011.08 1011.21 1011.78
1002.85 1003.90 1004.97 1006.17 1007.14 1007.78 1008.45 1009.21 1010.41 1011.39 1012.06 1012.42 1012.97 1013.08 1012.87 1012.94 1012.45 1012.57 1012.55 1012.35 1012.06 1012.34 1012.87 1012.93 1013.08 1012.90 1013.34 1013.38 1013.41 1013.72 1013.73 1013.76 1013.56 1013.46 1013.01 1012.68 1012.52 1012.47 1012.40 1011.94 1011.59 1011.22 1011.20
1001.91 1003.21 1004.23 1005.29 1006.36 1006.97 1007.72 1008.41 1009.58 1010.71 1011.42 1011.99 1012.39 1012.81 1013.08 1013.19 1013.05 1012.96 1012.57 1012.24 1011.91 1011.90 1012.91 1013.06 1013.13 1012.94 1013.17 1013.31 1013.77 1013.92 1013.96 1013.94 1014.04 1014.21 1013.65 1013.28 1013.28 1013.40 1013.16 1012.88 1012.37 1011.85 1011.09
1000.96 1002.25 1003.42 1004.47 1005.46 1006.24 1007.03 1007.86 1008.70 1009.95 1010.77 1011.26 1011.79 1012.37 1012.84 1012.89 1012.97 1012.85 1012.41 1012.14 1012.07 1012.08 1012.87 1013.05 1013.01 1012.91 1012.95 1013.15 1013.74 1013.92 1014.20 1014.33 1014.32 1014.61 1014.62 1013.95 1013.85 1013.79 1013.59 1013.41 1013.13 1012.37 1011.55
1000.17 1001.33 1002.40 1003.65 1004.62 1005.34 1006.04 1006.93 1007.92 1009.21 1010.10 1010.59 1011.27 1011.87 1012.49 1012.80 1012.36 1012.38 1012.69 1012.50 1012.60 1012.38 1012.73 1013.00 1013.05 1013.02 1012.97 1013.11 1013.69 1013.84 1014.16 1014.37 1014.52 1014.85 1014.82 1014.39 1014.08 1014.09 1013.94 1013.60 1013.46 1013.33 1012.65
999.46 1000.28 1001.51 1002.49 1003.52 1004.38 1005.35 1006.34 1007.27 1008.32 1009.28 1010.02 1010.63 1011.12 1011.66 1012.14 1012.36 1012.35 1012.38 1012.24 1012.27 1012.61 1012.94 1012.99 1013.08 1013.07 1012.92 1013.23 1013.66 1013.79 1014.47 1014.66 1014.49 1014.65 1015.26 1015.28 1014.80 1014.20 1014.24 1014.16 1013.93 1013.73 1013.63
999.06 999.56 1000.09 1001.52 1002.49 1003.36 1004.34 1005.24 1006.21 1007.26 1008.40 1009.15 1009.73 1010.30 1010.86 1011.35 1011.87 1012.07 1012.25 1012.43 1012.48 1012.58 1012.89 1013.09 1013.18 1013.10 1012.91 1013.04 1013.56 1014.02 1014.52 1014.70 1014.75 1015.02 1015.37 1015.34 1015.50 1015.18 1014.78 1014.42 1014.49 1014.35 1014.42
999.54 999.24 999.42 1000.09 1001.57 1002.42 1003.29 1004.28 1005.39 1006.30 1007.41 1008.19 1008.86 1009.61 1010.27 1010.79 1011.22 1011.59 1011.79 1012.11 1012.29 1012.46 1012.70 1012.94 1013.00 1013.05 1012.93 1012.95 1013.41 1013.82 1014.35 1014.74 1014.72 1015.07 1015.35 1015.50 1015.49 1015.35 1015.22 1014.49 1014.83 1014.91 1014.85
1001.37 1000.39 999.55 999.72 1000.83 1001.95 1002.71 1003.65 1004.82 1005.66 1006.61 1007.59 1008.29 1008.87 1009.47 1010.17 1010.50 1010.88 1011.38 1011.65 1011.93 1012.27 1012.38 1012.62 1012.78 1012.75 1012.89 1012.99 1013.22 1013.76 1014.42 1014.87 1014.78 1015.11 1015.43 1015.74 1015.86 1015.93 1015.83 1015.69 1015.57 1015.24 1014.80
1003.54 1002.35 1001.40 1000.84 1001.45 1002.35 1002.88 1003.57 1004.35 1005.19 1006.07 1006.98 1007.79 1008.44 1008.99 1009.50 1010.04 1010.37 1010.80 1011.21 1011.52 1011.84 1012.08 1012.24 1012.30 1012.44 1012.76 1012.87 1013.06 1013.80 1014.54 1014.87 1015.22 1015.47 1015.74 1016.02 1016.04 1016.22 1016.15 1016.13 1015.84 1015.78 1015.19
1006.08 1004.98 1004.01 1004.22 1004.08 1003.87 1003.84 1004.26 1004.86 1005.22 1005.73 1006.58 1007.31 1007.85 1008.37 1008.89 1009.45 1009.83 1010.33 1010.72 1010.96 1011.27 1011.62 1011.89 1011.95 1012.24 1012.44 1012.36 1012.96 1013.75 1014.55 1015.20 1015.53 1015.69 1015.87 1016.30 1016.86 1016.98 1016.92 1016.13 1016.68 1016.52 1016.03
1008.22 1007.72 1007.32 1006.75 1006.37 1006.20 1005.47 1005.51 1005.85 1006.13 1006.13 1006.39 1007.08 1007.59 1008.07 1008.33 1008.82 1009.34 1009.75 1010.19 1010.50 1010.74 1011.01 1011.46 1011.64 1011.86 1011.83 1011.70 1012.64 1013.49 1014.33 1015.10 1015.54 1015.99 1016.41 1016.82 1016.94 1017.28 1017.53 1017.65 1017.76 1017.63 1017.31
1009.53 1009.38 1009.30 1008.95 1008.21 1007.34 1007.05 1006.79 1006.32 1006.35 1006.45 1006.71 1006.98 1007.42 1007.80 1008.10 1008.43 1008.88 1009.19 1009.52 1009.92 1010.28 1010.61 1010.98 1011.27 1011.48 1011.60 1012.27 1013.01 1013.58 1014.12 1015.03 1015.59 1015.93 1016.25 1016.34 1016.76 1017.35 1017.87 1018.04 1017.77 1017.76 1017.90
1010.63 1010.34 1010.04 1009.66 1009.31 1008.20 1008.15 1008.30 1007.56 1006.86 1006.43 1006.66 1007.06 1007.38 1007.76 1007.94 1008.22 1008.52 1008.83 1009.15 1009.44 1009.65 1010.13 1010.59 1010.96 1011.22 1011.37 1012.24 1013.11 1013.63 1014.20 1014.90 1015.50 1015.70 1015.95 1016.07 1017.06 1017.07 1017.41 1017.20 1017.49 1017.83 1018.25
1011.05 1010.73 1010.38 1009.86 1009.72 1009.23 1008.79 1008.39 1007.63 1007.07 1006.72 1006.34 1006.64 1006.96 1007.36 1007.53 1007.85 1008.10 1008.46 1008.81 1009.02 1009.16 1009.63 1010.00 1010.46 1010.85 1011.49 1012.43 1012.89 1013.59 1014.27 1014.88 1015.36 1015.66 1015.92 1016.21 1017.02 1017.50 1017.66 1017.35 1017.42 1017.69 1018.27
1011.53 1010.92 1010.49 1009.80 1009.53 1009.41 1009.04 1008.43 1007.89 1007.06 1006.45 1006.34 1006.39 1006.63 1006.81 1007.08 1007.32 1007.57 1007.94 1008.25 1008.50 1008.71 1009.01 1009.33 1009.64 1010.25 1011.32 1012.46 1012.75 1013.16 1013.49 1014.50 1015.09 1015.68 1015.94 1016.44 1016.85 1017.64 1018.03 1017.73 1017.68 1017.47 1017.83
1011.69 1010.91 1010.52 1010.23 1010.08 1009.71 1009.19 1008.59 1008.73 1008.33 1007.98 1007.21 1006.73 1006.40 1006.47 1006.79 1007.05 1007.25 1007.53 1007.89 1008.12 1008.22 1008.61 1008.82 1009.17 1009.67 1010.53 1012.23 1012.71 1012.75 1012.83 1013.73 1014.54 1015.17 1015.83 1016.10 1016.93 1017.83 1018.35 1018.37 1017.87 1018.21 1018.13
1011.69 1011.22 1010.64 1010.55 1010.27 1010.30 1009.81 1009.28 1009.43 1009.23 1008.63 1007.83 1007.36 1006.96 1006.83 1006.74 1006.47 1007.11 1007.44 1007.64 1007.96 1008.27 1008.44 1008.75 1009.07 1009.36 1010.55 1011.44 1012.47 1012.79 1013.14 1013.24 1014.10 1014.78 1015.33 1015.82 1016.96 1017.71 1018.38 1018.58 1018.45 1018.31 1017.97
1011.76 1011.51 1011.18 1010.93 1010.97 1010.73 1010.59 1010.13 1010.01 1009.46 1008.87 1007.97 1007.44 1007.29 1007.42 1007.28 1007.18 1007.47 1007.97 1008.13 1008.23 1008.27 1008.47 1008.37 1008.97 1008.89 1009.95 1011.37 1012.39 1012.77 1013.44 1013.43 1014.07 1014.66 1015.02 1015.72 1016.82 1017.66 1018.28 1018.62 1018.60 1018.16 1017.70
1011.81 1011.77 1011.65 1011.26 1011.18 1011.14 1010.98 1010.95 1010.55 1009.98 1009.36 1009.11 1008.26 1008.01 1007.79 1007.70 1007.61 1007.74 1008.31 1008.86 1009.29 1008.98 1009.46 1009.45 1009.61 1008.99 1009.72 1010.45 1011.84 1013.41 1013.88 1013.81 1014.28 1014.70 1015.28 1016.11 1016.79 1017.50 1017.71 1018.08 1018.37 1017.84 1016.78
1012.10 1011.97 1011.91 1011.76 1011.66 1011.53 1011.46 1011.25 1010.83 1010.36 1009.46 1009.16 1008.73 1008.55 1008.43 1008.53 1008.59 1008.66 1009.18 1009.63 1009.52 1009.77 1009.61 1010.36 1010.75 1010.45 1010.24 1010.01 1010.77 1012.04 1013.43 1013.97 1014.19 1014.58 1015.34 1016.07 1016.30 1016.71 1016.77 1017.18 1017.04 1017.04 1017.00
1012.66 1012.38 1012.20 1012.20 1011.99 1012.04 1011.85 1011.74 1011.58 1011.11 1010.35 1009.26 1008.21 1008.41 1008.08 1008.07 1008.43 1008.83 1009.63 1010.20 1009.87 1011.23 1010.12 1010.08 1010.90 1010.36 1009.90 1009.51 1010.21 1011.62 1012.78 1013.62 1013.89 1014.43 1015.03 1015.34 1015.55 1015.41 1015.50 1015.73 1016.01 1016.08 1016.53
Wind_Speed
15 17 15 14 15 14 13 11 10 9 7 6 6 5 6 5 4 2 4 4 5 6 3 8 7 6 8 4 6 8 6 7 8 9 3 6 5 5 4 5 5 6 5
18 17 17 15 15 14 14 13 11 10 8 7 6 4 3 2 3 5 4 2 2 5 6 6 8 9 7 8 5 7 7 7 4 7 8 5 5 4 3 4 3 5 1
19 18 18 16 15 15 14 14 13 12 10 9 5 4 4 4 4 6 8 4 0 4 2 5 6 7 8 9 6 6 7 8 6 3 4 6 7 9 6 5 2 2 4
17 20 20 18 17 15 15 13 14 13 12 10 7 6 5 5 1 3 5 2 2 4 3 3 6 6 8 7 7 7 8 6 9 7 6 3 1 4 6 2 6 4 5
18 20 21 20 18 16 15 14 14 13 11 11 10 7 8 5 6 5 3 4 3 5 2 3 5 6 7 7 6 7 7 6 7 6 6 5 5 5 5 7 3 6 5
19 18 19 19 18 17 16 15 15 12 13 12 12 10 6 7 5 5 4 7 3 6 4 4 5 3 6 8 6 6 6 6 5 7 4 6 6 7 7 8 7 6 2
19 18 18 19 19 19 18 15 16 15 15 14 13 12 11 8 8 6 7 7 4 4 8 2 3 5 6 5 5 5 4 6 7 7 8 5 5 5 6 7 8 9 5
19 19 20 19 20 20 19 17 17 15 15 15 13 10 11 8 9 8 8 5 6 3 4 2 2 2 3 5 4 2 4 6 5 5 6 7 5 5 5 6 7 9 10
18 19 20 20 19 20 20 19 16 15 16 16 12 11 11 11 9 8 8 7 4 5 5 4 2 4 1 3 4 2 2 3 2 2 4 7 4 5 6 6 6 6 8
18 20 19 20 20 20 19 19 18 17 17 16 14 13 13 12 11 7 8 7 6 5 4 4 4 3 2 5 2 3 4 2 2 4 4 7 7 5 5 6 6 6 7
13 16 20 20 20 20 19 20 19 19 16 16 15 14 13 13 12 11 9 10 8 6 7 7 6 6 7 3 1 2 4 2 3 2 4 4 5 6 7 6 8 7 7
12 12 17 21 19 20 19 19 18 17 17 15 13 14 12 12 12 12 12 10 9 9 8 8 8 7 7 5 3 4 4 4 3 3 3 5 5 5 6 6 4 6 6
4 13 11 14 16 17 17 17 17 17 17 15 15 14 14 13 12 12 11 10 10 10 10 9 9 9 8 8 4 4 5 4 3 3 3 4 4 6 6 6 7 7 4
12 11 12 3 8 10 12 13 15 17 16 16 15 13 14 14 14 12 12 12 11 11 11 9 9 9 8 9 4 5 5 4 4 4 4 4 5 4 5 6 7 7 9
11 13 12 12 12 3 5 8 10 12 13 12 14 14 14 14 14 14 13 13 12 12 11 10 10 10 9 9 9 7 6 6 6 5 5 8 10 11 12 8 8 9 8
9 10 13 7 4 6 6 5 7 10 10 11 13 12 12 13 12 12 13 12 12 12 11 11 11 10 9 9 15 10 8 7 7 4 8 8 11 10 13 13 15 11 10
6 4 4 7 7 5 4 7 7 9 9 11 11 11 11 11 11 12 12 12 11 10 11 10 10 10 10 13 13 10 8 8 8 5 8 9 8 8 8 7 9 8 6
9 7 6 5 6 9 5 7 9 9 10 10 10 10 12 12 11 11 11 10 9 10 10 10 9 9 8 16 14 11 10 8 10 8 8 5 9 7 6 4 6 9 9
9 8 8 6 4 8 6 7 6 10 10 10 10 9 11 11 11 11 11 10 10 9 9 10 10 10 6 12 17 13 10 10 10 9 6 8 8 8 0 3 4 5 8
9 8 8 7 5 5 6 6 6 8 8 9 9 10 9 8 10 10 11 10 9 9 9 10 10 12 11 13 17 14 9 11 9 9 4 4 7 10 5 3 3 1 6
9 7 4 6 6 6 5 5 5 6 7 6 5 6 7 7 6 6 8 9 9 9 10 9 9 9 11 13 15 16 10 10 9 9 7 8 13 10 6 3 4 5 3
8 12 7 7 8 6 7 4 7 6 7 5 7 6 5 7 6 8 5 8 8 9 8 8 8 8 9 14 16 15 7 11 10 10 7 8 14 11 7 5 6 3 6
8 11 11 9 9 9 8 8 8 8 8 6 2 4 3 3 4 6 5 3 5 7 7 8 7 6 8 9 12 11 4 10 9 8 5 19 15 10 6 3 3 4 7
9 9 10 10 9 9 10 9 8 7 4 7 3 3 3 3 5 5 5 4 3 2 3 2 6 5 8 8 9 8 6 10 8 8 10 10 11 9 5 9 6 7 5
6 8 9 8 10 8 9 11 10 8 6 2 3 6 5 4 4 5 6 4 3 2 4 3 1 4 4 5 13 16 11 9 9 10 8 8 8 9 8 8 7 7 4
8 7 9 10 9 8 10 9 10 12 8 8 2 4 4 5 4 5 3 2 7 4 3 8 8 4 10 11 19 17 12 12 18 10 8 9 8 11 10 9 8 7 6
Wind_Direction
177 171 178 167 161 159 164 176 180 164 190 199 206 206 214 195 245 248 111 281 17 21 297 349 355 349 354 329 9 343 351 316 49 311 351 133 169 79 52 46 38 43 69
172 176 182 176 178 173 172 175 183 176 195 204 236 262 274 263 296 355 50 281 336 324 296 355 329 16 323 72 5 21 339 346 31 3 322 338 147 165 40 47 13 112 223
176 180 182 187 186 180 184 179 187 182 196 240 195 183 261 257 255 216 227 157 348 287 12 344 355 343 291 27 12 23 359 344 329 79 18 341 360 333 144 161 109 297 324
185 178 185 190 193 189 183 188 188 191 190 202 231 214 257 250 239 221 68 328 211 308 295 18 1 359 325 39 10 24 340 335 352 356 37 127 73 347 327 169 158 201 209
185 184 188 189 198 189 187 186 190 194 206 189 232 195 230 218 225 224 114 227 231 233 32 26 7 11 357 46 22 5 2 3 349 5 344 344 298 181 312 312 317 201 170
182 190 185 186 198 194 191 185 181 195 201 195 201 230 239 243 266 191 230 239 207 172 132 16 5 33 6 34 21 7 38 17 25 344 329 352 347 353 330 328 312 341 296
184 183 186 188 193 199 193 192 180 192 199 203 204 207 217 225 245 241 211 272 216 215 105 47 38 5 2 49 9 21 41 48 19 7 333 1 3 350 343 330 338 321 294
184 185 188 189 193 201 197 199 182 192 197 201 203 203 211 218 222 208 259 221 237 210 96 326 326 13 330 17 16 32 42 48 43 26 355 324 8 357 349 345 337 330 335
194 189 189 187 194 200 200 199 195 192 199 202 196 199 205 229 230 239 201 238 269 277 178 240 306 312 338 359 9 79 79 69 14 114 351 318 20 6 350 344 351 343 332
194 191 192 192 193 196 198 198 194 193 198 203 198 199 203 210 224 237 239 239 248 213 295 277 276 291 313 327 345 160 109 99 28 24 14 342 14 337 6 358 357 351 339
204 206 191 194 197 194 196 196 196 193 195 205 199 202 203 205 212 219 225 231 238 237 227 251 263 273 287 182 290 45 129 151 102 61 53 36 21 12 5 3 357 8 5
301 219 202 189 195 198 195 192 195 196 194 199 201 199 200 206 207 217 220 222 230 226 228 234 243 260 278 294 218 235 135 181 142 95 66 32 30 336 36 356 9 43 15
302 279 233 198 182 201 195 195 193 198 194 197 201 199 199 200 208 209 215 217 220 229 234 218 232 247 262 269 204 231 165 187 111 114 81 66 46 40 26 30 10 8 359
353 3 19 68 163 192 198 193 195 202 198 193 202 206 207 208 211 212 211 214 218 222 226 231 228 237 254 250 190 193 160 170 138 88 92 89 76 56 18 40 7 20 329
16 5 37 16 12 275 225 191 220 212 202 189 202 207 213 214 216 217 220 218 214 218 226 225 226 233 243 238 159 169 169 165 131 121 135 72 76 64 43 44 36 6 11
23 5 2 12 6 344 323 220 230 246 244 205 212 216 213 219 218 220 222 221 222 220 220 220 229 228 239 150 149 162 162 164 151 146 106 125 120 86 73 80 70 49 26
350 18 332 347 337 333 320 286 272 226 230 229 221 219 221 222 224 222 220 220 218 225 219 221 218 225 240 139 138 155 156 164 159 158 156 195 124 143 119 127 132 96 51
335 337 328 336 317 304 14 311 290 270 238 217 223 220 226 225 222 222 224 218 215 219 220 215 217 222 228 150 154 163 143 158 171 171 181 173 163 158 166 145 93 81 68
325 329 327 316 303 301 331 315 287 269 229 227 213 214 217 217 221 221 220 221 215 217 216 214 205 212 167 150 158 166 160 164 178 186 198 160 193 136 317 170 113 111 132
339 333 328 303 324 330 327 312 325 308 202 214 215 211 210 209 216 216 217 218 217 221 223 213 205 203 161 171 174 177 179 166 181 181 183 168 192 153 189 227 150 166 77
327 328 342 3 350 337 319 43 21 6 344 327 312 204 193 197 218 234 214 216 217 236 216 226 213 206 172 178 190 194 195 171 184 177 185 182 141 156 195 267 354 45 129
356 350 10 21 26 5 329 337 44 359 335 317 254 230 194 216 192 215 228 222 220 219 229 210 221 210 159 167 195 209 229 159 176 179 191 148 150 158 181 238 106 148 272
6 358 350 25 23 18 13 356 353 343 340 337 153 174 95 173 98 71 48 292 230 253 220 223 216 208 174 164 194 184 188 141 160 184 143 135 144 149 167 204 219 215 229
8 2 2 2 19 5 12 9 347 331 315 334 73 73 55 327 185 162 112 98 31 35 33 7 341 200 165 164 165 186 196 135 158 126 120 145 150 176 217 154 208 241 256
1 13 3 7 2 5 15 5 358 341 303 294 287 244 251 277 347 344 24 13 40 10 110 85 328 320 302 233 171 166 186 173 169 146 131 151 167 187 198 207 195 224 166
344 6 11 359 0 360 359 6 357 344 335 307 321 23 227 255 220 243 190 346 76 255 282 185 245 202 217 258 161 160 156 166 152 153 163 171 188 192 195 196 196 197 197